Wind_Speed
19 21 21 18 17 17 21 23 23 23 18 25 28 31 27 14 15 16 20 24 23 26 24 22 23 21 12 11 12 11 10 10 11 11 12 14 15 16 18 22 24 27 29 31
27 27 24 20 23 24 23 22 24 23 19 24 22 19 15 19 17 22 24 23 26 24 24 21 18 15 12 13 11 11 11 11 10 11 12 14 17 18 20 22 23 25 28 29
32 26 20 19 19 22 22 24 24 24 21 16 20 24 17 19 22 19 20 21 22 24 24 18 15 14 14 12 12 11 11 11 11 11 12 14 15 17 18 21 24 24 26 28
20 19 21 23 24 22 26 25 23 14 11 10 10 8 14 23 14 19 20 21 21 19 18 16 14 15 16 14 15 16 15 14 16 14 15 16 17 18 20 20 21 23 23 23
12 8 9 20 19 14 13 8 9 12 16 19 20 14 11 15 18 22 20 20 20 19 16 16 17 18 19 18 20 20 20 19 20 18 18 18 16 16 18 19 19 21 23 23
16 13 12 10 8 9 10 11 14 18 19 6 21 19 5 11 6 11 17 19 21 19 18 19 20 21 23 24 25 23 17 16 17 17 18 19 20 19 18 19 20 22 23 24
10 14 13 14 15 16 17 14 4 3 2 6 10 7 21 11 9 9 10 16 22 19 18 20 22 24 25 27 29 30 25 21 19 19 21 23 23 22 22 21 21 25 28 30
10 7 15 19 24 24 19 24 11 7 4 5 9 8 9 14 11 8 11 15 17 16 20 20 22 24 26 29 32 33 34 36 38 39 40 41 41 40 37 37 36 36 33 33
10 13 18 23 20 23 17 23 22 17 16 6 10 17 17 13 13 17 11 10 12 13 16 20 23 27 31 33 36 39 41 43 45 48 51 50 50 48 48 48 49 47 45 45
21 16 18 19 21 22 22 16 10 10 1 5 7 13 16 10 14 7 7 11 16 19 22 23 23 26 29 33 36 39 43 47 50 52 52 52 50 48 44 41 37 35 36 35
28 25 15 21 27 28 26 24 17 15 17 5 2 11 10 12 11 12 19 23 26 26 30 35 39 41 42 44 49 50 51 49 45 45 45 44 39 38 39 39 38 38 37 37
27 16 20 26 22 25 26 26 25 22 10 18 16 24 21 21 22 23 21 23 28 36 43 46 47 46 43 43 42 39 35 36 40 41 40 37 36 35 36 36 38 40 39 40
29 18 13 13 20 25 26 31 30 30 25 26 10 13 20 19 16 22 31 38 43 45 45 47 44 40 38 36 34 34 37 38 35 33 34 33 33 35 38 40 42 46 49 50
32 32 30 25 16 12 21 35 26 21 15 18 33 29 34 31 31 40 42 44 44 44 42 39 38 36 35 36 36 33 31 30 29 28 30 32 35 37 40 43 45 46 48 51
34 34 33 35 36 27 29 31 28 27 30 26 43 38 44 40 42 43 43 40 39 38 37 36 36 38 38 36 33 29 26 28 30 33 35 38 40 41 40 40 41 43 46 49
31 29 31 32 29 29 35 44 42 42 44 43 42 45 40 36 35 38 39 36 35 34 35 37 37 36 34 31 29 28 31 34 38 39 39 39 39 38 40 42 44 47 50 53
32 31 29 31 30 25 26 43 41 41 41 41 38 35 25 34 33 31 30 33 37 39 36 32 30 30 29 28 30 33 34 35 36 37 37 37 39 41 42 44 48 53 58 62
31 31 27 17 16 3 32 36 35 36 35 31 28 27 27 27 30 37 37 33 33 33 32 29 28 28 29 31 33 33 33 34 35 36 38 40 40 41 44 49 55 60 64 63
33 30 19 13 22 29 35 31 28 22 34 32 27 26 28 34 34 35 31 34 33 31 28 28 29 33 35 37 33 32 33 34 38 39 40 40 42 44 48 53 59 62 61 55
39 36 32 24 8 10 33 26 19 23 29 33 30 29 27 31 29 28 25 27 27 27 30 35 41 39 39 34 31 32 37 39 39 39 39 40 41 45 50 57 61 58 53 53
26 32 39 41 20 21 28 26 27 18 34 27 26 33 27 27 27 26 29 30 34 39 42 41 35 31 30 32 34 37 39 40 39 39 38 39 42 47 53 59 59 52 52 55
31 22 29 24 13 16 36 28 32 35 29 28 34 30 28 29 29 33 37 40 38 35 34 32 32 32 33 36 37 38 40 40 40 39 38 40 45 48 54 58 52 50 53 57
27 37 27 25 18 22 19 19 21 23 29 35 30 29 29 32 36 38 37 36 35 33 34 33 33 34 36 37 39 40 40 39 39 39 39 43 46 49 54 54 49 50 53 56
33 34 32 34 37 38 34 33 36 38 38 28 26 28 31 34 35 36 34 34 35 36 36 36 35 35 37 39 41 40 39 39 40 39 40 44 46 49 53 52 48 50 53 53
33 32 40 37 38 39 40 40 37 32 27 27 25 29 33 34 34 33 35 35 39 41 39 38 37 37 37 39 39 39 40 40 39 39 41 44 47 50 52 50 47 50 50 51
40 42 37 36 32 34 34 27 21 23 24 26 32 34 34 34 35 35 37 38 40 39 38 37 36 36 37 39 39 39 40 40 39 39 42 44 47 50 52 50 46 44 46 47
Wind_Direction
264 255 255 270 273 273 272 272 271 276 278 286 283 285 291 288 282 278 290 287 275 277 290 303 311 313 305 300 298 295 294 285 289 298 299 292 282 277 272 270 271 273 275 272
261 262 275 268 262 267 262 263 266 276 282 285 284 283 287 286 283 281 280 271 276 283 292 299 303 293 278 280 278 276 281 279 277 280 285 289 289 286 283 280 278 276 275 276
272 274 270 259 255 246 251 258 268 279 285 263 288 292 292 299 289 273 271 266 270 278 282 286 283 272 271 262 265 272 273 277 283 288 290 289 285 286 290 290 287 282 278 277
271 270 253 249 244 245 256 262 265 262 266 260 276 278 265 295 253 258 267 269 269 265 268 273 263 263 262 263 268 270 274 280 286 282 285 287 290 289 286 285 286 291 292 286
252 256 240 238 248 242 253 236 254 262 262 270 262 265 276 228 248 255 259 260 256 257 260 254 258 269 272 269 275 276 272 277 281 279 282 283 280 284 284 284 286 287 287 288
244 247 226 214 210 207 238 250 265 271 273 269 271 237 239 231 251 270 263 254 250 251 254 259 267 272 277 283 281 279 272 267 268 270 272 274 276 278 282 288 290 287 285 284
216 227 223 221 219 237 236 236 273 287 205 233 207 221 233 243 250 276 260 262 253 252 262 265 268 271 275 278 286 288 281 273 275 278 281 282 284 284 286 286 291 296 291 286
222 232 228 230 233 245 242 230 202 222 207 239 210 249 229 252 260 253 251 251 256 270 282 284 284 286 290 294 295 290 287 290 290 293 299 301 305 309 305 301 301 300 298 295
227 239 241 234 228 230 227 211 231 249 264 292 238 248 257 238 244 261 257 241 251 261 289 300 296 295 294 292 291 290 288 291 295 303 312 315 315 313 311 310 308 304 299 297
245 247 246 234 213 215 228 237 214 201 193 248 262 246 230 240 219 224 242 267 286 293 297 302 301 294 287 285 285 287 291 296 299 303 306 307 308 305 302 299 293 287 281 273
242 242 243 224 225 235 237 228 221 234 234 186 234 257 255 221 229 268 283 283 281 288 297 298 297 296 294 292 294 300 302 302 303 304 306 305 300 295 294 294 293 291 288 285
236 243 242 244 250 240 228 238 239 230 232 226 238 256 257 261 274 279 278 284 297 299 300 300 300 301 302 305 305 305 301 303 307 307 304 301 298 297 296 295 293 291 291 290
240 235 248 257 237 233 241 247 242 235 239 238 227 247 260 271 269 286 293 294 296 295 294 295 298 300 300 300 301 300 303 305 304 300 297 294 292 293 295 294 293 293 293 293
240 238 240 240 245 219 237 244 240 224 234 243 243 250 259 264 271 284 291 292 292 292 292 294 296 294 295 298 298 299 301 300 299 296 296 297 300 301 301 300 297 295 292 291
241 245 246 249 248 245 245 247 235 240 251 250 267 266 269 276 283 285 281 286 286 286 288 288 286 291 295 294 294 296 291 290 290 293 299 304 305 303 301 300 300 298 297 296
235 237 246 248 249 255 261 262 258 259 262 261 264 269 277 282 278 282 288 288 286 284 282 285 289 292 290 291 292 288 291 297 303 306 306 305 304 305 306 305 305 304 303 302
235 240 246 255 262 262 263 260 264 266 268 269 264 278 275 284 286 284 285 283 282 285 288 292 290 288 290 293 296 302 303 303 301 301 302 304 306 306 306 306 307 308 307 306
250 250 244 249 249 254 262 265 267 269 270 268 268 274 278 275 277 281 286 285 286 290 290 283 279 283 291 298 301 298 293 294 298 301 303 305 305 305 306 310 311 311 309 306
247 241 231 231 234 257 259 264 266 264 274 275 266 265 272 283 282 281 282 282 284 285 282 283 290 293 296 300 295 289 292 297 299 301 302 302 303 305 309 311 313 312 309 306
242 243 239 233 211 214 269 269 263 262 257 271 273 276 284 286 272 284 284 279 276 275 279 287 293 291 292 291 288 290 294 296 297 299 299 301 303 307 311 314 315 312 309 307
230 228 227 233 237 252 254 255 260 249 270 278 278 291 284 276 284 283 279 274 275 281 287 291 293 292 291 289 291 294 296 295 296 297 300 302 305 309 314 317 315 310 309 310
239 229 226 224 226 251 261 241 240 276 271 276 290 285 282 285 285 283 283 285 287 290 292 292 292 292 291 291 293 296 295 295 296 297 300 302 308 314 317 318 313 310 312 311
235 245 249 243 257 271 271 272 272 272 278 291 284 281 284 282 278 281 285 285 287 288 290 291 293 293 293 290 290 293 292 293 294 297 299 304 311 316 319 317 312 313 314 314
253 255 253 256 262 271 277 276 275 278 282 279 275 278 275 273 278 284 285 286 287 289 292 290 293 294 290 288 289 290 289 292 293 294 299 306 311 315 320 317 313 315 316 318
259 265 263 268 279 286 282 279 278 281 274 268 273 273 274 276 277 282 284 285 286 289 290 288 293 295 289 286 287 286 286 289 290 294 301 306 311 315 319 316 314 317 319 322
264 268 272 283 302 293 292 285 273 270 270 259 266 278 273 271 277 278 281 284 285 285 283 288 294 293 286 282 285 284 283 287 288 295 302 307 311 315 318 315 313 318 320 321
Height
3145 3145 3146 3148 3148 3147 3146 3145 3144 3145 3146 3141 3140 3138 3140 3140 3139 3138 3136 3134 3133 3131 3130 3129 3128 3127 3125 3125 3124 3123 3122 3122 3122 3122 3121 3120 3119 3118 3118 3117 3117 3116 3115 3115
3140 3138 3143 3143 3142 3142 3141 3139 3138 3139 3140 3137 3135 3134 3135 3134 3133 3132 3130 3129 3127 3126 3126 3126 3125 3124 3123 3122 3120 3120 3120 3119 3118 3117 3116 3116 3116 3115 3114 3111 3111 3110 3109 3108
3132 3136 3137 3137 3137 3135 3135 3134 3135 3135 3135 3132 3130 3129 3130 3129 3127 3125 3124 3123 3123 3123 3123 3123 3122 3121 3120 3119 3117 3116 3115 3115 3115 3115 3113 3112 3112 3111 3110 3109 3106 3104 3103 3101
3125 3127 3129 3131 3131 3133 3131 3132 3132 3132 3131 3129 3128 3122 3122 3121 3120 3119 3119 3119 3120 3118 3119 3119 3118 3117 3116 3116 3114 3113 3112 3110 3110 3110 3109 3108 3108 3107 3106 3104 3103 3101 3099 3096
3123 3122 3123 3124 3125 3128 3130 3130 3129 3128 3127 3124 3124 3123 3112 3113 3115 3114 3114 3115 3116 3116 3116 3116 3116 3114 3113 3109 3110 3110 3108 3106 3106 3106 3105 3103 3102 3101 3100 3098 3097 3096 3094 3092
3118 3120 3121 3121 3123 3125 3127 3128 3127 3125 3124 3121 3116 3118 3110 3110 3110 3112 3111 3111 3113 3114 3112 3112 3111 3110 3109 3106 3104 3104 3104 3101 3100 3100 3100 3098 3096 3094 3094 3093 3092 3090 3088 3087
3114 3114 3117 3119 3120 3121 3121 3125 3126 3124 3123 3116 3110 3110 3105 3106 3107 3108 3109 3109 3110 3110 3110 3108 3106 3105 3103 3104 3102 3099 3101 3097 3095 3093 3094 3094 3091 3089 3087 3086 3084 3085 3082 3080
3110 3111 3110 3113 3114 3116 3115 3116 3115 3119 3119 3110 3110 3102 3099 3101 3102 3103 3104 3105 3106 3107 3108 3106 3104 3104 3103 3101 3100 3097 3095 3092 3089 3087 3085 3085 3082 3080 3078 3077 3076 3077 3075 3073
3104 3105 3105 3104 3107 3111 3111 3111 3112 3111 3109 3109 3100 3097 3095 3096 3097 3098 3100 3100 3101 3102 3102 3101 3101 3101 3099 3097 3095 3091 3088 3085 3081 3077 3076 3073 3071 3068 3066 3063 3062 3063 3064 3065
3100 3098 3099 3101 3101 3103 3104 3107 3107 3107 3110 3113 3095 3091 3086 3090 3092 3093 3094 3094 3094 3094 3094 3094 3093 3093 3092 3089 3086 3083 3080 3077 3073 3071 3069 3065 3063 3060 3057 3055 3053 3051 3050 3049
3094 3095 3094 3095 3094 3096 3099 3097 3099 3100 3097 3096 3098 3085 3082 3086 3089 3090 3089 3088 3087 3086 3086 3085 3084 3083 3082 3080 3076 3072 3069 3067 3065 3062 3060 3057 3054 3051 3048 3045 3042 3040 3039 3037
3087 3087 3086 3088 3089 3090 3089 3088 3090 3089 3087 3085 3085 3079 3080 3082 3084 3085 3084 3082 3080 3078 3077 3074 3072 3070 3068 3066 3064 3062 3060 3058 3056 3053 3051 3048 3045 3043 3040 3036 3034 3032 3030 3028
3081 3079 3078 3080 3085 3083 3083 3081 3079 3079 3079 3077 3081 3074 3075 3075 3077 3077 3076 3074 3072 3070 3067 3065 3064 3062 3059 3057 3054 3052 3049 3047 3044 3043 3041 3039 3036 3034 3031 3029 3026 3023 3019 3016
3072 3070 3067 3067 3071 3072 3074 3072 3071 3074 3073 3072 3066 3068 3071 3070 3071 3070 3068 3066 3063 3060 3058 3056 3055 3053 3051 3048 3045 3042 3039 3036 3035 3034 3032 3030 3027 3024 3021 3018 3015 3011 3008 3004
3064 3062 3062 3064 3064 3064 3065 3065 3062 3064 3064 3064 3059 3062 3060 3064 3061 3060 3058 3057 3055 3053 3051 3049 3047 3043 3041 3038 3036 3034 3032 3030 3029 3027 3024 3020 3017 3013 3010 3006 3003 3000 2996 2991
3054 3054 3055 3055 3056 3056 3054 3055 3056 3055 3055 3052 3052 3048 3055 3053 3051 3049 3048 3045 3043 3041 3041 3040 3037 3035 3031 3029 3028 3026 3023 3020 3017 3014 3011 3008 3005 3002 2999 2995 2991 2987 2982 2977
3047 3047 3050 3048 3048 3048 3045 3040 3045 3044 3044 3043 3041 3042 3044 3042 3040 3039 3039 3036 3034 3031 3028 3027 3026 3023 3021 3019 3017 3014 3012 3009 3006 3004 3001 2997 2994 2991 2987 2983 2979 2973 2967 2961
3040 3041 3045 3043 3042 3043 3030 3035 3035 3032 3034 3033 3033 3033 3034 3033 3031 3029 3029 3025 3024 3021 3019 3018 3017 3016 3013 3010 3008 3005 3002 3000 2997 2993 2989 2986 2983 2980 2976 2971 2965 2959 2951 2944
3034 3035 3035 3036 3033 3028 3024 3027 3025 3023 3026 3026 3026 3025 3025 3023 3020 3018 3019 3018 3016 3013 3012 3011 3010 3008 3004 3001 2999 2996 2993 2990 2988 2984 2980 2976 2972 2968 2963 2958 2952 2944 2935 2928
3025 3025 3027 3026 3023 3021 3015 3018 3015 3016 3015 3016 3017 3016 3015 3013 3010 3011 3010 3009 3007 3005 3004 3003 3001 2997 2994 2991 2989 2987 2984 2981 2978 2974 2971 2967 2963 2958 2952 2945 2937 2928 2920 2913
3013 3014 3013 3013 3012 3008 3009 3008 3010 3015 3009 3009 3009 3007 3004 3002 3003 3002 3001 3000 2999 2997 2995 2993 2989 2986 2984 2982 2980 2977 2974 2970 2967 2964 2961 2957 2952 2946 2940 2932 2923 2915 2907 2899
3004 3007 3004 3006 3007 3004 3001 3001 3002 3003 3000 3000 2999 2997 2995 2993 2993 2992 2991 2989 2987 2985 2984 2981 2979 2977 2974 2972 2970 2967 2963 2960 2957 2954 2950 2946 2941 2935 2928 2920 2912 2904 2895 2885
2998 2996 2996 2996 2992 2991 2990 2993 2993 2992 2991 2991 2989 2988 2986 2984 2983 2982 2980 2979 2977 2976 2974 2972 2969 2966 2964 2962 2959 2957 2953 2950 2947 2944 2940 2935 2930 2923 2916 2907 2900 2893 2884 2873
2988 2987 2987 2985 2986 2987 2986 2986 2984 2982 2981 2981 2980 2979 2977 2974 2973 2971 2970 2970 2968 2966 2964 2962 2959 2956 2953 2951 2948 2946 2944 2941 2938 2935 2930 2925 2919 2913 2905 2897 2889 2881 2873 2861
2982 2980 2974 2974 2977 2978 2976 2974 2974 2972 2971 2970 2970 2969 2967 2966 2963 2962 2961 2959 2957 2955 2953 2951 2949 2946 2943 2940 2938 2936 2933 2931 2928 2925 2920 2915 2909 2901 2894 2886 2879 2871 2863 2850
2969 2965 2966 2965 2969 2965 2963 2963 2962 2960 2960 2960 2960 2959 2957 2956 2954 2953 2951 2949 2947 2945 2943 2941 2938 2935 2932 2930 2928 2925 2923 2920 2918 2914 2910 2904 2898 2891 2883 2875 2870 2867 2854 2844